FW6847 Weather Reports


Display with metric or nautical units.
time (UTC)temp
F
wind
direction
speed
MPH
gust
MPH
rain 1hr
in
rain 24hr
in
rain mn
in
humidity
%
barometer
mb
20210731151549 92 135 5.0 6.0 0.00 0.00 0.00 43 1013.4
20210731150437 90 180 5.0 7.0 0.00 0.00 0.00 47 1013.5
20210731145326 89 180 7.0 8.0 0.00 0.00 0.00 47 1013.5
20210731144525 90 180 9.0 15.0 0.00 0.00 0.00 45 1013.5
20210731143326 92 180 8.0 11.0 0.00 0.00 0.00 41 1013.4
20210731142504 91 225 4.0 6.0 0.00 0.00 0.00 42 1013.2
20210731141150 92 180 5.0 9.0 0.00 0.00 0.00 41 1013.2
20210731135951 92 315 6.0 11.0 0.00 0.00 0.00 38 1013.2
20210731134751 93 270 4.0 6.0 0.00 0.00 0.00 35 1013.3
20210731133550 94 135 10.0 12.0 0.00 0.00 0.00 33 1013.3
20210731132350 93 180 10.0 14.0 0.00 0.00 0.00 33 1013.2
20210731131151 94 180 8.0 10.0 0.00 0.00 0.00 33 1013.0
20210731130038 93 90 6.0 10.0 0.00 0.00 0.00 32 1012.8
20210731124750 94 0 6.0 9.0 0.00 0.00 0.00 34 1012.9
20210731123551 94 225 11.0 14.0 0.00 0.00 0.00 35 1012.7
20210731122350 94 135 8.0 11.0 0.00 0.00 0.00 37 1013.0
20210731121150 94 135 5.0 8.0 0.00 0.00 0.00 36 1012.9
20210731115950 94 135 4.0 6.0 0.00 0.00 0.00 33 1012.9
20210731114750 94 180 6.0 10.0 0.00 0.00 0.00 31 1013.2
20210731113638 95 225 4.0 4.0 0.00 0.00 0.00 31 1013.2
20210731112351 94 135 2.0 4.0 0.00 0.00 0.00 31 1013.3
20210731111151 94 180 4.0 6.0 0.00 0.00 0.00 31 1013.4
20210731105950 94 135 4.0 5.0 0.00 0.00 0.00 31 1013.3
20210731104751 93 225 5.0 7.0 0.00 0.00 0.00 33 1013.4
20210731103550 92 180 4.0 5.0 0.00 0.00 0.00 34 1013.5
20210731102350 92 225 6.0 7.0 0.00 0.00 0.00 38 1013.5
20210731101151 91 225 6.0 8.0 0.00 0.00 0.00 40 1013.5
20210731095950 92 135 6.0 9.0 0.00 0.00 0.00 41 1013.7
20210731094750 91 135 4.0 7.0 0.00 0.00 0.00 41 1013.8
20210731093550 91 135 8.0 9.0 0.00 0.00 0.00 41 1013.8
20210731092351 89 135 5.0 7.0 0.00 0.00 0.00 47 1013.7
20210731091152 89 180 7.0 9.0 0.00 0.00 0.00 47 1013.7
20210731085951 89 180 5.0 7.0 0.00 0.00 0.00 48 1014.0
20210731084751 89 135 5.0 7.0 0.00 0.00 0.00 48 1014.1
20210731083551 89 158 5.0 8.0 0.00 0.00 0.00 50 1014.2
20210731082350 87 135 4.0 6.0 0.00 0.00 0.00 50 1014.2
20210731081150 86 135 8.0 9.0 0.00 0.00 0.00 49 1014.3
20210731075950 88 135 4.0 5.0 0.00 0.00 0.00 49 1014.2
20210731074750 86 135 5.0 7.0 0.00 0.00 0.00 50 1014.3
20210731073550 84 135 4.0 4.0 0.00 0.00 0.00 50 1014.2
20210731072351 85 135 5.0 8.0 0.00 0.00 0.00 49 1014.2
20210731071150 85 135 4.0 8.0 0.00 0.00 0.00 51 1014.1
20210731065952 86 180 2.0 5.0 0.00 0.00 0.00 52 1014.3
20210731064751 83 225 5.0 7.0 0.00 0.00 0.00 55 1014.0
20210731063550 83 135 6.0 7.0 0.00 0.00 0.00 54 1013.9
20210731062352 83 135 2.0 4.0 0.00 0.00 0.00 54 1013.9
20210731061152 82 135 4.0 4.0 0.00 0.00 0.00 55 1013.7
20210731055952 81 135 4.0 5.0 0.00 0.00 0.00 60 1013.7
20210731054751 81 135 6.0 8.0 0.00 0.00 0.00 56 1013.5
20210731053552 80 135 4.0 6.0 0.00 0.00 0.00 57 1013.6
20210731052352 79 135 4.0 4.0 0.00 0.00 0.00 60 1013.6
20210731051152 78 180 5.0 6.0 0.00 0.00 0.00 60 1013.7
20210731045950 77 158 3.0 4.0 0.00 0.00 0.00 61 1013.5
20210731044752 75 135 4.0 5.0 0.00 0.00 0.00 63 1013.3
20210731043550 75 180 4.0 4.0 0.00 0.00 0.00 65 1013.5
20210731042439 74 135 2.0 3.0 0.00 0.00 0.00 69 1013.6
20210731041238 72 135 2.0 3.0 0.00 0.00 0.00 74 1013.5
20210731035950 71 90 1.0 2.0 0.00 0.00 0.00 76 1013.5
20210731034751 70 45 2.0 2.0 0.00 0.00 0.00 79 1013.7
20210731033551 70 90 3.0 4.0 0.00 0.00 0.00 78 1013.6
20210731032351 72 158 2.0 4.0 0.00 0.00 0.00 71 1013.4
20210731031151 74 180 3.0 4.0 0.00 0.00 0.00 66 1013.2
20210731025950 75 135 2.0 3.0 0.00 0.00 0.00 64 1013.1
20210731024751 76 135 5.0 7.0 0.00 0.00 0.00 64 1013.1
20210731023551 75 135 4.0 4.0 0.00 0.00 0.00 65 1013.1
20210731022350 75 135 4.0 5.0 0.00 0.00 0.00 68 1013.0
20210731021150 73 135 4.0 5.0 0.00 0.00 0.00 70 1013.5
20210731015950 73 90 2.0 3.0 0.00 0.00 0.00 69 1013.5
20210731014755 73 180 4.0 5.0 0.00 0.00 0.00 70 1013.5
20210731013550 72 180 5.0 8.0 0.00 0.00 0.00 72 1013.2
20210731012350 73 158 5.0 6.0 0.00 0.00 0.00 70 1013.6
20210731011151 73 135 3.0 4.0 0.00 0.00 0.00 70 1013.6
20210731005950 73 135 5.0 6.0 0.00 0.00 0.00 71 1013.6
20210731004750 73 135 2.0 3.0 0.00 0.00 0.00 71 1013.7
20210731003550 72 135 4.0 5.0 0.00 0.00 0.00 71 1014.0
20210731002350 71 135 2.0 3.0 0.00 0.00 0.00 71 1014.3
20210731001238 72 135 2.0 2.0 0.00 0.00 0.00 71 1014.3
20210730235950 71 90 2.0 2.0 0.00 0.00 0.00 71 1014.6
20210730234750 71 135 1.0 2.0 0.00 0.00 0.00 71 1014.6
20210730233550 71 0.0 0.0 0.00 0.00 0.00 70 1014.5
20210730232350 72 0.0 0.0 0.00 0.00 0.00 70 1014.6
20210730231150 72 0 1.0 2.0 0.00 0.00 0.00 71 1014.6
20210730225950 73 0.0 0.0 0.00 0.00 0.00 68 1014.9
20210730224838 74 0.0 0.0 0.00 0.00 0.00 67 1014.9
20210730223551 74 0.0 0.0 0.00 0.00 0.00 65 1014.8
20210730222351 75 0.0 0.0 0.00 0.00 0.00 64 1014.7
20210730221151 76 90 1.0 2.0 0.00 0.00 0.00 64 1014.4
20210730215950 75 135 1.0 2.0 0.00 0.00 0.00 65 1014.4
20210730214750 76 0.0 0.0 0.00 0.00 0.00 63 1014.4
20210730213550 77 90 1.0 2.0 0.00 0.00 0.00 63 1014.4
20210730212439 77 135 2.0 2.0 0.00 0.00 0.00 63 1014.2
20210730211151 77 135 2.0 3.0 0.00 0.00 0.00 63 1014.4
20210730205951 77 135 2.0 3.0 0.00 0.00 0.00 64 1014.3
20210730204750 76 135 2.0 3.0 0.00 0.00 0.00 67 1014.3
20210730203550 75 135 1.0 2.0 0.00 0.00 0.00 66 1014.5
20210730202351 76 135 2.0 2.0 0.00 0.00 0.00 64 1014.5
20210730201150 77 0.0 0.0 0.00 0.00 0.00 61 1014.7
20210730195951 78 0.0 1.0 0.00 0.00 0.00 61 1014.7
20210730194751 78 0.0 1.0 0.00 0.00 0.00 61 1014.6
20210730193550 79 0 2.0 2.0 0.00 0.00 0.00 61 1014.7
20210730192439 79 0 2.0 3.0 0.00 0.00 0.00 60 1014.7
20210730191151 80 0 3.0 4.0 0.00 0.00 0.00 60 1014.4
20210730185950 80 0 2.0 2.0 0.00 0.00 0.00 59 1014.5
20210730184750 81 0 3.0 4.0 0.00 0.00 0.00 56 1014.4
20210730183550 82 0 3.0 4.0 0.00 0.00 0.00 51 1014.3
20210730182351 83 0 2.0 3.0 0.00 0.00 0.00 50 1014.4
20210730181150 84 0 4.0 5.0 0.00 0.00 0.00 49 1014.4
20210730175950 85 0 4.0 4.0 0.00 0.00 0.00 47 1014.4
20210730174750 87 0 4.0 7.0 0.00 0.00 0.00 46 1014.3
20210730173550 88 23 2.0 3.0 0.00 0.00 0.00 44 1014.3
20210730172350 90 315 2.0 2.0 0.00 0.00 0.00 44 1014.2
20210730171150 90 45 4.0 6.0 0.00 0.00 0.00 41 1014.0
20210730165950 92 0 3.0 4.0 0.00 0.00 0.00 37 1014.1
20210730164750 93 315 3.0 4.0 0.00 0.00 0.00 36 1014.1
20210730163550 94 315 4.0 7.0 0.00 0.00 0.00 34 1014.2
20210730162350 95 315 2.0 3.0 0.00 0.00 0.00 34 1014.2
20210730161150 96 225 3.0 4.0 0.00 0.00 0.00 33 1014.2
20210730155950 96 315 3.0 4.0 0.00 0.00 0.00 32 1014.1
20210730154750 95 225 2.0 3.0 0.00 0.00 0.00 32 1014.1
20210730153551 96 315 2.0 3.0 0.00 0.00 0.00 31 1014.1
20210730152351 96 293 6.0 8.0 0.00 0.00 0.00 32 1014.2